Home   Weather   Molepolole   Past weeks

Flag for Botswana Past Weather in Molepolole, Botswana — Yesterday and Last 2 Weeks

Now
72 °F

Passing clouds.


Feels Like: 76 °F
Forecast: 75 / 93 °F
Wind: 5 mph from Northwest

Location: Seretse Khama International Airport

Current Time: Jan 20, 2017 at 7:54:08 am

Latest Report: Jan 20, 2017 at 7:00 am


Visibility: N/A

Pressure: 29.95 "Hg (26.23 "Hg at 1145m altitude)

Humidity: 61%

Dew Point: 57 °F

Location of MolepololeLocation

Past Weather in Molepolole — Graph

°F

Molepolole Temperature Yesterday

Maximum temperature yesterday: 91 °F (at 5:00 pm)
Minimum temperature yesterday: 64 °F (at 4:00 am)
Average temperature yesterday: 79 °F

High & Low Weather Summary for the Past Weeks

 TemperatureHumidityPressure
High93 °F (Jan 16, 3:00 pm)100% (Jan 6, 7:00 pm)30.18 "Hg (Jan 6, 7:00 pm)
Low64 °F (Jan 9, 6:00 am)22% (Jan 18, 6:00 pm)29.77 "Hg (Jan 16, 4:00 pm)
Average76 °F66%29.97 "Hg
* Reported Jan 5 6:00 am — Jan 20 6:00 am, Molepolole, Weather by CustomWeather, © 2017

Note: Actual official high and low records may vary slightly from our data, if they occured in-between our weather recording intervals... More about our weather records

Advertising

Molepolole Weather History for the Previous 24 Hours

Scroll right to see more
 ConditionsComfort  
Time TempWeatherWind HumidityBarometerVisibility
6:00 am
Fri, Jan 20
70 °FPassing clouds.3 mph60%29.95 "HgN/A
5:00 am68 °FClear.2 mph64%29.95 "Hg10 mi
3:00 am68 °FClear.9 mph69%29.92 "Hg10 mi
2:00 am68 °FClear.2 mph64%29.95 "Hg10 mi
12:00 am70 °FClear.6 mph64%29.95 "Hg10 mi
11:00 pm
Thu, Jan 19
72 °FClear.2 mph65%29.95 "Hg10 mi
10:00 pm79 °FPassing clouds.1 mph39%29.95 "HgN/A
9:00 pm79 °FPassing clouds.3 mph39%29.92 "HgN/A
8:00 pm81 °FClear.3 mph37%29.92 "Hg10 mi
7:00 pm88 °FPassing clouds.5 mph27%29.89 "HgN/A
6:10 pm90 °FPassing clouds.7 mph24%29.89 "HgN/A
5:00 pm91 °FScattered clouds.7 mph23%29.89 "HgN/A
4:00 pm90 °FPartly sunny.7 mph26%29.92 "HgN/A
3:00 pm90 °FPartly sunny.7 mph26%29.95 "HgN/A
2:00 pm88 °FScattered clouds.7 mph27%29.98 "HgN/A
1:00 pm86 °FScattered clouds.7 mph31%30.01 "HgN/A
12:00 pm84 °FPassing clouds.6 mph35%30.04 "HgN/A
11:00 am81 °FPassing clouds.7 mph42%30.07 "HgN/A
10:00 am79 °FPassing clouds.7 mph45%30.07 "HgN/A
9:00 am77 °FSunny.6 mph54%30.09 "Hg10 mi
7:00 am70 °FPassing clouds.5 mph64%30.09 "HgN/A
Weather by CustomWeather, © 2017

See weather overviewHow to use our weather pages